Regional Weather Roundup
Issued by NWS Cleveland, OH

Home | Current Version | Previous Version | Graphics & Text | Print | Product List | Glossary On
Versions: 1 2 3 4 5 6 7 8 9 10 11 12 13 14 15 16 17 18 19 20 21 22 23 24 25 26 27 28 29 30 31 32 33 34 35 36 37 38 39 40 41 42 43 44 45 46 47 48 49 50
000
ASUS41 KCLE 280810
RWRCLE
OHIO REGIONAL WEATHER ROUNDUP
NATIONAL WEATHER SERVICE CLEVELAND, OH
400 AM EDT THU MAY 28 2015

NOTE: "FAIR" INDICATES FEW OR NO CLOUDS BELOW 12,000 FEET WITH NO
SIGNIFICANT WEATHER AND/OR OBSTRUCTIONS TO VISIBILITY.

OHZ001>008-015>018-024>027-034-035-043-044-280900-
   NORTHWEST OHIO

CITY           SKY/WX    TMP DP  RH WIND       PRES   REMARKS
DEFIANCE       CLEAR     58  55  90 NW3       30.17S
FINDLAY        PTCLDY    62  60  93 NW5       30.15S FOG
TOLEDO EXPRESS CLEAR     57  55  93 CALM      30.16R
TOLEDO EXEC    CLEAR     60  56  86 CALM      30.17R
LIMA           PTCLDY    59  58  96 NW3       30.16S FOG
$$

OHZ009>014-019>023-028>033-038-089-280900-
   NORTHEAST OHIO

CITY           SKY/WX    TMP DP  RH WIND       PRES   REMARKS
CLE-HOPKINS    MOCLDY    64  62  93 W6        30.17R
CLE-LAKEFRONT  CLOUDY    65  62  90 W7        30.15R
CUY CO. ARPT   NOT AVBL
LORAIN-ELYRIA  PTCLDY    62  62 100 CALM      30.16R FOG
ASHTABULA      CLOUDY    63  62  97 W5        30.15S
AKRON-CANTON   CLOUDY    65  62  90 W6        30.16R
WOOSTER        MOCLDY    63  62  97 CALM      30.16S FOG
MANSFIELD      PTCLDY    64  64 100 W5        30.17R FOG
YOUNGSTOWN     LGT RAIN  62  61  96 SW5       30.15R
$$

OHZ042-051>053-060>062-070>072-077>081-280900-
  SOUTHWEST OHIO

CITY           SKY/WX    TMP DP  RH WIND       PRES   REMARKS
CINC-COVINGTON MOCLDY    62  60  93 CALM      30.17R
CINC-LUNKEN    MOCLDY    62  61  96 CALM      30.17S
HAMILTON       MOCLDY    62  60  93 CALM      30.17S
DAYTON         MOCLDY    65  63  93 W7        30.16F
WRIGHT-PAT AFB MOCLDY    67  63  87 S3        30.16R
DAYTON GENERAL PTCLDY    65  62  90 SW5       30.16R
WILMINGTON     MOCLDY    61  58  90 S5        30.17R
$$

OHZ036-037-039>041-045>050-054>059-063>069-073>076-082>088-280900-
  CENTRAL AND SOUTHEAST OHIO

CITY           SKY/WX    TMP DP  RH WIND       PRES   REMARKS
COLUMBUS       CLOUDY    66  60  81 CALM      30.15S
OSU AIRPORT    PTCLDY    63  59  87 W6        30.15S
BOLTON FIELD   NOT AVBL
RICKENBACK AFB MOCLDY    63  59  86 CALM      30.16R
NEWARK         MOCLDY    63  58  83 CALM      30.15S
MARION         PTCLDY    65  62  90 W5        30.16R FOG
LANCASTER      MOCLDY    64  59  83 CALM      30.17R
ZANESVILLE     NOT AVBL
NEW PHILLY     MOCLDY    64  60  87 CALM      30.16S
$$



USA.gov is the U.S. government's official web portal to all federal, state and local government web resources and services.